Weather History for KART - March, 2014

Change the Weather History Date:

Wednesday, March 5, 2014

  Actual Average Record
Temperature  
Mean Temperature 4 °F 26 °F  
Max Temperature 22 °F 36 °F 67 °F (1976)
Min Temperature -15 °F 16 °F -15 °F (2014)
Degree Days  
Heating Degree Days 61 39  
Month to date heating degree days 297 198  
Since 1 July heating degree days 5968 5639  
Cooling Degree Days 0 0  
Month to date cooling degree days 0 0  
Year to date cooling degree days 0 0  
Moisture  
Dew Point 5 °F    
Average Humidity 63    
Maximum Humidity 80    
Minimum Humidity 45    
Precipitation  
Precipitation 0.01 in 0.08 in 0.92 in (2011)
Month to date precipitation 0.03 0.38  
Year to date precipitation 7.13 5.26  
Sea Level Pressure  
Sea Level Pressure 30.38 in    
Wind  
Wind Speed 7 mph (NE)    
Max Wind Speed 20 mph    
Max Gust Speed 25 mph    
Visibility 5 miles    
Events Snow    
T = Trace of Precipitation, MM = Missing Value Source: NWS Daily Summary

Daily Weather History Graph

Daily Weather History Graph

Search for Another Location

Airport or City:

Trip Planner

Search our weather history database for the weather conditions in past years. The results will help you decide how hot, cold, wet, or windy it might be!

Date:

Astronomy

Mar. 05, 2014 Rise Set
Actual Time 6:34 AM EST 5:57 PM EST
Civil Twilight 6:05 AM EST 6:26 PM EST
Nautical Twilight 5:31 AM EST 6:59 PM EST
Astronomical Twilight 4:58 AM EST 7:33 PM EST
Moon 8:48 AM EST (3/5) 11:15 PM EST (3/5)
Length of Visible Light 12h 21m
Length of Day
11h 23m
Waxing Crescent, 23% of the Moon is Illuminated
Mar 5
Waxing Crescent
Mar 8
First Quarter
Mar 16
Full
Mar 23
Last Quarter
Mar 30
New

Hourly Weather History & Observations

Time (EST) Temp. Windchill Dew Point Humidity Pressure Visibility Wind Dir Wind Speed Gust Speed Precip Events Conditions
12:40 AM 16.0 °F - 8.1 °F 71% 30.26 in 2.0 mi Calm Calm - 0.00 in Snow Light Snow
12:49 AM 16.0 °F - 9.0 °F 74% 30.26 in 1.5 mi Calm Calm - 0.00 in Snow Light Snow
12:56 AM 16.0 °F - 9.0 °F 74% 30.29 in 1.5 mi Calm Calm - 0.00 in Snow Light Snow
1:27 AM 16.0 °F - 10.0 °F 77% 30.26 in 2.0 mi Calm Calm - 0.00 in Snow Light Snow
1:49 AM 16.0 °F 10.4 °F 10.0 °F 77% 30.25 in 1.8 mi ENE 3.5 mph - 0.01 in Snow Light Snow
1:56 AM 16.0 °F 10.4 °F 10.0 °F 77% 30.29 in 1.8 mi East 3.5 mph - 0.01 in Snow Light Snow
2:07 AM 16.0 °F - 10.0 °F 77% 30.26 in 1.8 mi Calm Calm - 0.00 in Snow Light Snow
2:15 AM 16.0 °F - 10.0 °F 77% 30.25 in 2.0 mi Calm Calm - 0.00 in Snow Light Snow
2:34 AM 16.0 °F - 10.0 °F 77% 30.25 in 4.0 mi Calm Calm - 0.00 in Snow Light Snow
2:56 AM 16.0 °F - 10.0 °F 77% 30.28 in 3.0 mi Calm Calm - 0.00 in Snow Light Snow
3:08 AM 16.0 °F 10.4 °F 10.0 °F 77% 30.25 in 2.5 mi NE 3.5 mph - 0.00 in Snow Light Snow
3:56 AM 16.0 °F 8.8 °F 10.0 °F 77% 30.28 in 2.5 mi ENE 4.6 mph - 0.00 in Snow Light Snow
4:03 AM 16.0 °F 8.8 °F 9.0 °F 74% 30.25 in 4.0 mi ENE 4.6 mph - 0.00 in Snow Light Snow
4:56 AM 15.1 °F - 9.0 °F 77% 30.29 in 5.0 mi Calm Calm - 0.00 in Snow Light Snow
5:56 AM 12.9 °F 6.9 °F 7.0 °F 77% 30.30 in 4.0 mi ENE 3.5 mph - 0.00 in   Haze
6:56 AM 14.0 °F 6.5 °F 8.1 °F 77% 30.31 in 2.0 mi NE 4.6 mph - 0.00 in Snow Light Snow
7:05 AM 15.1 °F 9.4 °F 8.1 °F 74% 30.29 in 1.2 mi NNE 3.5 mph - 0.00 in Snow Light Snow
7:12 AM 15.1 °F 9.4 °F 8.1 °F 74% 30.29 in 1.2 mi NE 3.5 mph - 0.00 in Snow Light Snow
7:51 AM 15.8 °F 8.6 °F 8.6 °F 73% 30.30 in 1.5 mi NE 4.6 mph - 0.00 in Snow Light Snow
7:56 AM 15.1 °F 7.7 °F 9.0 °F 77% 30.33 in 1.5 mi NE 4.6 mph - 0.00 in Snow Light Snow
8:33 AM 16.0 °F 6.3 °F 9.0 °F 74% 30.33 in 2.5 mi NE 6.9 mph - 0.00 in   Haze
8:45 AM 17.1 °F 7.6 °F 9.0 °F 71% 30.33 in 3.0 mi ENE 6.9 mph - 0.00 in   Haze
8:56 AM 17.1 °F 6.6 °F 9.0 °F 71% 30.37 in 4.0 mi NE 8.1 mph - 0.00 in   Haze
9:56 AM 19.0 °F 8.2 °F 9.0 °F 65% 30.38 in 6.0 mi NNE 9.2 mph - N/A   Haze
10:37 AM 19.9 °F 8.6 °F 10.0 °F 65% 30.35 in 1.8 mi NNE 10.4 mph - 0.00 in Snow Light Snow
10:49 AM 19.9 °F 7.9 °F 10.0 °F 65% 30.35 in 2.5 mi NE 11.5 mph - 0.00 in Snow Light Snow
10:56 AM 19.9 °F 8.6 °F 10.0 °F 65% 30.39 in 2.5 mi NE 10.4 mph - 0.00 in Snow Light Snow
11:56 AM 21.9 °F 11.0 °F 9.0 °F 58% 30.40 in 10.0 mi North 10.4 mph - 0.00 in   Overcast
12:56 PM 19.9 °F 4.8 °F 7.0 °F 57% 30.42 in 10.0 mi North 18.4 mph - N/A   Overcast
1:09 PM 19.9 °F 5.7 °F 6.1 °F 55% 30.39 in 10.0 mi NNE 16.1 mph - N/A   Overcast
1:23 PM 21.0 °F 7.1 °F 7.0 °F 55% 30.40 in 10.0 mi NNE 16.1 mph 25.3 mph N/A   Mostly Cloudy
1:56 PM 21.0 °F 6.2 °F 5.0 °F 50% 30.43 in 10.0 mi North 18.4 mph - N/A   Overcast
2:56 PM 21.0 °F 7.1 °F 3.9 °F 48% 30.47 in 10.0 mi NNE 16.1 mph 23.0 mph N/A   Mostly Cloudy
3:56 PM 19.9 °F 6.7 °F 1.9 °F 46% 30.49 in 10.0 mi North 13.8 mph - N/A   Clear
4:56 PM 18.0 °F 4.2 °F 1.0 °F 48% 30.52 in 10.0 mi NNE 13.8 mph - N/A   Clear
5:56 PM 15.1 °F 2.5 °F -2.0 °F 47% 30.56 in 10.0 mi NNE 10.4 mph - N/A   Clear
6:56 PM 12.9 °F 2.6 °F -2.0 °F 51% 30.58 in 10.0 mi NNE 6.9 mph - N/A   Clear
7:56 PM -0.9 °F - -9.0 °F 69% 30.60 in 10.0 mi Calm Calm - N/A   Clear
8:56 PM -5.1 °F -13.6 °F -11.0 °F 76% 30.62 in 10.0 mi NNE 3.5 mph - N/A   Clear
9:56 PM -8.0 °F -16.9 °F -14.1 °F 75% 30.63 in 10.0 mi East 3.5 mph - N/A   Clear
10:56 PM -11.9 °F -21.5 °F -18.0 °F 74% 30.65 in 10.0 mi East 3.5 mph - N/A   Clear
11:56 PM -11.0 °F -22.8 °F -18.0 °F 71% 30.65 in 10.0 mi East 4.6 mph - N/A   Clear